This is the latest recevied weather packets stored in our database for station/object N8BAP. If no packets are shown the sender has not sent any weather packets the latest 10 day(s).
| Time | Temp. | Humidity | Pressure | Rain* | Wind** | Luminosity | Snow |
|---|---|---|---|---|---|---|---|
| 1787945023 | 28.89° C | 59% | 1025.5 hPa | 0 mm | - | 714 W/m² | - |
| 1787944721 | 29.44° C | 60% | 1025.2 hPa | 0 mm | - | 744 W/m² | - |
| 1787944417 | 29.44° C | 55% | 1025.4 hPa | 0 mm | - | 693 W/m² | - |
| 1787944111 | 29.44° C | 58% | 1025.1 hPa | 0 mm | - | 742 W/m² | - |
| 1787943807 | 28.89° C | 53% | 1025.2 hPa | 0 mm | - | 400 W/m² | - |
| 1787943502 | 28.33° C | 52% | 1025.4 hPa | 0 mm | - | 674 W/m² | - |
| 1787943197 | 28.89° C | 48% | 1025.6 hPa | 0 mm | - | 662 W/m² | - |
| 1787942896 | 28.33° C | 50% | 1025.7 hPa | 0 mm | - | 621 W/m² | - |
| 1787942592 | 28.33° C | 54% | 1025.6 hPa | 0 mm | - | 678 W/m² | - |
| 1787942292 | 28.33° C | 55% | 1025.5 hPa | 0 mm | - | 706 W/m² | - |
| 1787941987 | 28.33° C | 56% | 1025.5 hPa | 0 mm | - | 704 W/m² | - |
| 1787941681 | 27.78° C | 55% | 1025.6 hPa | 0 mm | - | 695 W/m² | - |
| 1787941379 | 27.78° C | 60% | 1025.7 hPa | 0 mm | - | 667 W/m² | - |
| 1787941075 | 28.33° C | 57% | 1025.6 hPa | 0 mm | - | 692 W/m² | - |
| 1787940775 | 28.33° C | 59% | 1025.8 hPa | 0 mm | - | 732 W/m² | - |
| 1787940472 | 27.78° C | 62% | 1025.7 hPa | 0 mm | - | 633 W/m² | - |
| 1787940167 | 27.78° C | 58% | 1025.6 hPa | 0 mm | - | 712 W/m² | - |
| 1787939866 | 27.22° C | 60% | 1025.7 hPa | 0 mm | - | 713 W/m² | - |
| 1787939561 | 26.67° C | 63% | 1025.7 hPa | 0 mm | - | 278 W/m² | - |
| 1787939256 | 27.78° C | 55% | 1026 hPa | 0 mm | - | 211 W/m² | - |
| 1787938951 | 27.78° C | 59% | 1025.7 hPa | 0 mm | - | 737 W/m² | - |
| 1787938649 | 27.78° C | 57% | 1025.8 hPa | 0 mm | - | 680 W/m² | - |
| 1787938346 | 27.78° C | 57% | 1025.8 hPa | 0 mm | - | 673 W/m² | - |
| 1787938041 | 28.33° C | 58% | 1025.8 hPa | 0 mm | - | 679 W/m² | - |
| 1787937736 | 28.33° C | 56% | 1026 hPa | 0 mm | - | 716 W/m² | - |
* Rain latest hour (hover to see other rain measurements)
** Current wind speed in m/s (hover to see current wind gust speed)